Location: Uhersky Brod
(49.0330°N, 17.6500°E)
Time: 23:36:27
(UTC+01:00)

ISS - Visible Passes

Search period start: 20 January 2021 00:00
Search period end: 30 January 2021 00:00
Orbit: 418 x 419 km, 51.6° (Epoch: 21 January)

Date Brightness Start Highest point End Pass type
(mag) Time Alt. Az. Time Alt. Az. Time Alt. Az.
20 Jan -2.5 18:42:44 10° SW 18:45:01 34° SSW 18:45:01 34° SSW visible
21 Jan -2.7 17:55:19 10° SSW 17:58:21 31° SE 17:59:24 25° ESE visible
21 Jan -0.7 19:31:37 10° W 19:32:21 16° W 19:32:21 16° W visible
22 Jan -2.0 17:08:07 10° SSW 17:10:45 21° SE 17:13:24 10° E visible
22 Jan -3.3 18:43:51 10° WSW 18:46:41 61° WSW 18:46:41 61° WSW visible
23 Jan -3.7 17:56:09 10° WSW 17:59:29 66° SSE 18:00:58 30° E visible
23 Jan -0.7 19:33:02 10° W 19:33:55 17° W 19:33:55 17° W visible
24 Jan -3.1 17:08:32 10° SW 17:11:47 45° SSE 17:15:01 10° ENE visible
24 Jan -3.2 18:45:12 10° W 18:48:08 55° NW 18:48:08 55° NW visible
25 Jan -3.7 17:57:21 10° WSW 18:00:43 73° NNW 18:02:20 28° ENE visible
25 Jan -0.8 19:34:26 10° WNW 19:35:17 16° WNW 19:35:17 16° WNW visible
26 Jan -3.7 17:09:33 10° WSW 17:12:55 88° SSE 17:16:18 10° ENE visible
26 Jan -3.0 18:46:34 10° W 18:49:27 47° NNW 18:49:27 47° NNW visible
27 Jan -3.4 17:58:42 10° W 18:02:01 54° N 18:03:37 27° ENE visible
27 Jan -0.8 19:35:41 10° WNW 19:36:33 17° WNW 19:36:33 17° WNW visible
28 Jan -3.5 17:10:48 10° W 17:14:09 61° N 17:17:30 10° ENE visible
28 Jan -3.2 18:47:52 10° WNW 18:50:43 51° NNW 18:50:43 51° NNW visible
29 Jan -3.4 18:00:00 10° WNW 18:03:19 53° N 18:04:54 26° ENE visible
29 Jan -0.9 19:36:51 10° WNW 19:37:51 18° WNW 19:37:51 18° WNW visible
